loading
|

OBJECT D, 57427

Orbit data source: Space-Track

OBJECT D, 57427 is a satellite owned by CNSA (CN) in LEO that was launched on Sun, 23 Jul 2023 UTC via a Chang Zheng 2D launch vehicle from the Taiyaun Space Center, China (TSC). Unknown objects in Earth's orbit typically refer to objects detected orbiting the Earth but have not yet been identified or cataloged. These objects could be anything from previously untracked satellites, spent rocket stages, debris from satellite collisions, or even natural meteoroids temporarily captured by Earth's gravity.

Next visibility unknown
Loading greatness...
OBJECT D details
Identifier
57427, 2023-104D
Orbit
LEO
Last TLE update9 hours ago
Origin
Flag of CNCNSA (CN / PRC)
ManufacturerCAST
Mission statusOperational
MissionCommercial Communications
Bus & MotorUnknown
MassUnknown
Launch date (UTC)
2023-07-23 (1 year ago)
Launch vehicle
Chang Zheng 2D
Launch site
Taiyaun Space Center, China (TSC)
Object typeUnknown
Radar Cross SectionLarge (>1 m²)

Expand to show TLE details & history

TLE from 9 hours ago
0 OBJECT D
1 57427U 23104D   24261.59330992  .00959201  00000-0  34353-2 0  9996
2 57427  97.3318 336.0808 0009957 231.8597 128.1778 15.86500813 65014
Epoch: 2024-09-17T14:14Z
Definitive object data (Epoch: 2024-09-17T14:14:21.977Z)
Latitude0.00006°
Longitude125.48348°
Altitude319.407 km
Speed7.714 km/s
True Right ascension22h 24m 19s
True Declination0° 00' 00"
Sunlit
Object was in full shadow at TLE epoch
Predictive object data (real-time)
Latitude-25.40657°
Longitude129.36915°
Altitude321.499 km
Speed7.713 km/s
Apparent Right ascension01h 00m 24s
Apparent Declination-39° 32' 06"
Sunlit
Object is in full shadow
Predictive observer data (real-time)
Local Sidereal Time16:01:48
Azimuth104.357° ESE
Elevation-55.504°
Doppler factor1
Orbital elements
Apogee315.635 km
Perigee302.318 km
Semi-major axis6,687.114 km
Eccentricity0.0009957
Inclination97.3318°
RAAN336.0808°
Arg. of periapsis231.8597°
True anomaly128.26742°
Mean anomaly128.1778°
Eccentric anomaly128.22262°
Mean motion3.96904 °/min
BSTAR0.0034353
Period90.7 mins
No data available

OBJECT D Visibility forecast

Observer location: 39.9160978°, -105.1181434

OBJECT D is not visible in the next 10 days
Span
Click to sort rows by Start time (UTC) header in descending order
Start Az.
Max El. time (UTC)
Max El. Az.
Max El.
End time (UTC)
End Az.